Location: Igri�s
(42.2144°N, 0.4320°W)
Time: 16:54:25
(UTC+00:00)

Cosmos 1437 Rocket - Pass Details

Date: 13 August 2020
Orbit: 505 x 563 km, 81.2° (Epoch: 18 September)

Event Time Altitude Azimuth Distance (km) Brightness Sun altitude
Rises 21:19:24 0° 351° (N) 2,623 7.2 -21.7°
Reaches altitude 10° 21:21:33 10° 353° (N) 1,729 6.1 -21.9°
Enters shadow 21:25:00 69° 30° (NNE) 545 2.7 -22.4°
